Location: Makanda
(37.6176°N, 89.2090°W)
Time: 18:35:57
(UTC+00:00)

SL-16 R/B - Visible Passes

Search period start: 12 December 2019 00:00
Search period end: 22 December 2019 00:00
Orbit: 839 x 850 km, 71.0° (Epoch: 12 December)

Date Brightness Start Highest point End Pass type
(mag) Time Alt. Az. Time Alt. Az. Time Alt. Az.
12 Dec 4.8 01:42:19 10° WNW 01:44:34 12° NW 01:46:49 10° NNW visible
12 Dec 4.4 10:44:09 12° SSW 10:44:09 12° SSW 10:44:37 10° SSW visible
12 Dec 2.3 23:39:46 10° SSW 23:45:27 85° WNW 23:51:11 10° NNE visible
13 Dec 4.8 01:28:00 10° WNW 01:30:26 13° NW 01:32:52 10° NNW visible
13 Dec 2.3 23:25:40 10° SSW 23:31:21 88° WNW 23:37:05 10° NNE visible
14 Dec 4.8 01:13:41 10° WNW 01:16:17 13° NW 01:18:54 10° NNW visible
14 Dec 2.3 23:11:34 10° SSW 23:17:15 89° ESE 23:22:58 10° NNE visible
15 Dec 4.7 00:59:22 10° W 01:02:09 14° NW 01:04:56 10° NNW visible
15 Dec 2.3 22:57:28 10° SSW 23:03:09 86° ESE 23:08:52 10° NNE visible
16 Dec 4.7 00:45:05 10° W 00:48:01 14° NW 00:50:57 10° NNW visible
17 Dec 4.7 00:30:48 10° W 00:33:52 15° NW 00:36:57 10° NNW visible
18 Dec 4.7 00:16:33 10° W 00:19:45 15° NW 00:22:57 10° NNW visible
19 Dec 4.6 00:02:17 10° W 00:05:36 16° NW 00:08:57 10° NNW visible
19 Dec 4.6 23:48:02 10° W 23:51:28 16° NW 23:54:55 10° NNW visible
20 Dec 4.6 23:33:47 10° W 23:37:20 17° NW 23:40:55 10° NNW visible
21 Dec 4.5 23:19:33 10° W 23:23:12 17° NW 23:26:53 10° NNW visible
